User: anonymous   Login
Location: Unspecified
(0.0000°N, 0.0000°E)
Time: 05:21:03
(UTC+02:00)
Language:

IUS-9 SRM-1 - Orbit

View from above orbital plane
View from above orbital plane
View from above satellite
View from above satellite

Ground track
Ground track

The orbit data is extracted from the following two-line orbital elements,

1 19884U 89021C   15184.19497448  .00008044  00000-0  76175-3 0  9990
2 19884 026.4152 198.0212 6033278 096.5242 354.8755 04.02659751304779
Epoch (UTC): 03 July 2015 04:40:45
Eccentricity: 0.6033278
inclination: 26.4152°
perigee height: 242 km
apogee height: 20380 km
right ascension of ascending node: 198.0212°
argument of perigee: 96.5242°
revolutions per day: 4.02659751
mean anomaly at epoch: 354.8755°
orbit number at epoch: 30477

The dashed part of the orbit path shows where the satellite is in the earth's shadow,  

DLR